Vilalleons





Hora UTC 06:00
Temperatura 12.4 ºC
Humedad 98.0 %
Presión 1016.6 hPa
Pluja 0.0 mm
Velocidad viento 0.0 km/h
Dirección viento NE

Datos diarios 2020-05-30



Hora UTC (invierno +1h; verano +2h)
Temperatura (ºC) Humedad (%) Presión (hPa) Velocidad viento (km/h) Precipitación (mm)
Hora UTC Aire Humedad Presión Vel. Dir. Vel. Max Dir. Intent. máx 5 min.
00:05 11.2 97.0 1016.8 0.0 ENE 0.0 0.0
00:10 11.1 97.0 1016.8 1.6 ENE 1.6 0.0
00:15 10.9 97.0 1016.9 1.6 ENE 3.2 0.0
00:20 10.9 97.0 1016.9 0.0 ENE 3.2 0.0
00:25 10.9 97.0 1016.8 1.6 ENE 1.6 0.0
00:30 10.8 97.0 1016.9 0.0 ENE 3.2 0.0
00:35 10.9 97.0 1017.0 0.0 ENE 1.6 0.0
00:40 10.8 97.0 1016.9 0.0 ENE 1.6 0.0
00:45 10.7 97.0 1016.9 0.0 ENE 1.6 0.0
00:50 10.7 97.0 1016.9 3.2 ENE 3.2 0.0
00:55 10.6 97.0 1016.9 1.6 ENE 4.8 0.0
01:00 10.6 97.0 1016.8 1.6 ENE 3.2 0.0
01:05 10.7 98.0 1016.9 1.6 ENE 3.2 0.0
01:10 10.8 97.0 1016.9 0.0 ENE 3.2 0.0
01:15 10.7 97.0 1016.9 0.0 ENE 3.2 0.0
01:20 10.7 97.0 1016.9 1.6 ENE 1.6 0.0
01:25 10.6 97.0 1017.1 0.0 ENE 1.6 0.0
01:30 10.4 97.0 1017.0 1.6 ENE 3.2 0.0
01:35 10.3 97.0 1017.1 0.0 ENE 3.2 0.0
01:40 10.2 97.0 1017.0 0.0 ENE 3.2 0.0
01:45 10.2 97.0 1016.8 0.0 ENE 1.6 0.0
01:50 10.1 97.0 1017.0 1.6 ENE 3.2 0.0
01:55 10.0 97.0 1016.9 0.0 ENE 3.2 0.0
02:00 9.9 97.0 1017.0 1.6 ENE 4.8 0.0
02:05 10.0 97.0 1017.0 3.2 ENE 4.8 0.0
02:10 10.1 98.0 1016.9 0.0 ENE 3.2 0.0
02:15 10.2 98.0 1017.0 0.0 ENE 4.8 0.0
02:20 10.2 97.0 1017.0 1.6 ENE 4.8 0.0
02:25 10.1 98.0 1016.9 3.2 ENE 3.2 0.0
02:30 10.1 97.0 1017.0 1.6 ENE 3.2 0.0
02:35 9.9 97.0 1016.9 3.2 ENE 3.2 0.0
02:40 9.8 97.0 1016.8 0.0 ENE 3.2 0.0
02:45 9.7 97.0 1016.8 0.0 ENE 3.2 0.0
02:50 9.7 97.0 1016.9 0.0 ENE 3.2 0.0
02:55 9.6 97.0 1016.8 0.0 ENE 1.6 0.0
03:00 9.5 97.0 1016.9 0.0 ENE 1.6 0.0
03:05 9.5 97.0 1016.8 0.0 ENE 1.6 0.0
03:10 9.4 97.0 1016.6 1.6 ENE 1.6 0.0
03:15 9.4 97.0 1016.7 0.0 ENE 3.2 0.0
03:20 9.3 97.0 1016.7 0.0 ENE 3.2 0.0
03:25 9.3 97.0 1016.8 1.6 ENE 1.6 0.0
03:30 9.3 97.0 1016.9 0.0 ENE 1.6 0.0
03:35 9.3 98.0 1016.9 1.6 ENE 1.6 0.0
03:40 9.3 97.0 1016.9 1.6 ENE 3.2 0.0
03:45 9.3 98.0 1017.0 0.0 ENE 3.2 0.0
03:50 9.4 98.0 1017.0 1.6 ENE 1.6 0.0
03:55 9.7 98.0 1016.9 0.0 ENE 1.6 0.0
04:00 9.9 98.0 1016.9 0.0 ENE 1.6 0.0
04:05 10.1 98.0 1016.8 0.0 ENE 1.6 0.0
04:10 10.2 98.0 1016.8 1.6 ENE 1.6 0.0
04:15 10.4 98.0 1016.8 1.6 ENE 3.2 0.0
04:15 10.5 98.0 1016.9 0.0 ENE 3.2 0.0
04:25 10.7 98.0 1016.8 3.2 ENE 3.2 0.0
04:30 10.8 98.0 1016.8 1.6 ENE 3.2 0.0
04:35 11.0 98.0 1016.8 3.2 ENE 3.2 0.0
04:40 11.2 98.0 1016.8 1.6 ENE 3.2 0.0
04:45 11.3 98.0 1016.8 0.0 E 3.2 0.0
04:50 11.4 99.0 1016.9 3.2 E 3.2 0.0
04:50 11.4 98.0 1016.8 1.6 E 3.2 0.0
05:00 11.6 98.0 1016.8 0.0 E 3.2 0.0
05:05 11.6 98.0 1016.8 0.0 E 3.2 0.0
05:10 11.7 99.0 1016.9 0.0 E 1.6 0.0
05:15 11.8 98.0 1016.9 0.0 E 0.0 0.0
05:20 11.8 99.0 1016.9 0.0 E 0.0 0.0
05:25 11.9 98.0 1016.9 0.0 E 1.6 0.0
05:30 12.1 99.0 1016.9 0.0 E 3.2 0.0
05:35 12.2 98.0 1017.0 1.6 E 3.2 0.0
05:40 12.1 98.0 1017.0 0.0 E 3.2 0.0
05:45 12.2 98.0 1017.0 0.0 E 3.2 0.0
05:50 12.3 98.0 1016.9 0.0 E 3.2 0.0
05:55 12.4 98.0 1016.9 0.0 E 3.2 0.0
06:00 12.4 98.0 1016.6 0.0 NE 4.8 0.0
Máxima 12.5 99.0 1017.1 3.2 E 4.8 0.0
Mínima 9.3 97.0 1016.6
Total 0.0